New Orleans Lakefront, LA

12:47 AM CST on December 06, 2019 (GMT -0600)
Lakefront

Weather History for KNEW - November, 2019

Change the Weather History Date:

Thursday, November 14, 2019

  Actual Average Record
Temperature  
Mean Temperature 53 °F 63 °F  
Max Temperature 55 °F 72 °F 84 °F (1993)
Min Temperature 50 °F 54 °F 33 °F (1969)
Degree Days  
Heating Degree Days 12 4  
Month to date heating degree days 98 44  
Since 1 July heating degree days 104 69  
Cooling Degree Days 0 2  
Month to date cooling degree days 19 42  
Year to date cooling degree days 3615 2951  
Moisture  
Dew Point 41 °F    
Average Humidity 68    
Maximum Humidity 77    
Minimum Humidity 59    
Precipitation  
Precipitation 0.05 in 0.15 in 1.43 in (1998)
Month to date precipitation 0.08 1.97  
Year to date precipitation 59.49 54.69  
Snow  
Snow 0.00 in - - ()
Month to date snowfall 0.0  
Since 1 July snowfall 0.0  
Since 1 September snowfall 0.0  
Snow Depth 0.00 in    
Sea Level Pressure  
Sea Level Pressure 30.22 in    
Wind  
Wind Speed 7 mph (NNE)    
Max Wind Speed 13 mph    
Max Gust Speed 18 mph    
Visibility 10 miles    
Events Rain    
T = Trace of Precipitation, MM = Missing Value Source: NWS Daily Summary

Daily Weather History Graph

Daily Weather History Graph

Search for Another Location

Airport or City:

Astronomy

Nov. 14, 2019 Rise Set
Actual Time 6:24 AM CST 5:04 PM CST
Civil Twilight 5:58 AM CST 5:29 PM CST
Nautical Twilight 5:30 AM CST 5:58 PM CST
Astronomical Twilight 5:01 AM CST 6:27 PM CST
Moon 6:55 PM CST (11/14) 8:15 AM CST (11/14)
Length of Visible Light 11h 30m
Length of Day
10h 40m
Waning Gibbous, 95% of the Moon is Illuminated
Nov 14
Waning Gibbous
Nov 19
Last Quarter
Nov 26
New
Dec 4
First Quarter
Dec 11
Full

Hourly Weather History & Observations

Time (CST) Temp. Dew Point Humidity Pressure Visibility Wind Dir Wind Speed Gust Speed Precip Events Conditions
12:53 AM 50.0 °F 37.9 °F 63% 30.16 in 10.0 mi ENE 16.1 mph - N/A   Clear
2:53 AM 50.0 °F 37.9 °F 63% 30.17 in 10.0 mi ENE 13.8 mph - 0.00 in   Overcast
3:53 AM 50.0 °F 37.9 °F 63% 30.18 in 10.0 mi NE 10.4 mph - N/A   Overcast
4:53 AM 50.0 °F 39.0 °F 66% 30.17 in 10.0 mi NE 12.7 mph - 0.00 in   Overcast
5:53 AM 50.0 °F 39.9 °F 68% 30.19 in 10.0 mi NNE 10.4 mph - N/A   Overcast
6:53 AM 50.0 °F 41.0 °F 71% 30.21 in 10.0 mi NNE 11.5 mph - N/A   Overcast
7:53 AM 50.0 °F 42.1 °F 74% 30.22 in 10.0 mi NNE 10.4 mph - N/A   Overcast
8:53 AM 51.1 °F 43.0 °F 74% 30.23 in 10.0 mi NE 9.2 mph - N/A   Overcast
9:53 AM 52.0 °F 43.0 °F 71% 30.23 in 10.0 mi ENE 9.2 mph - N/A   Overcast
10:53 AM 52.0 °F 44.1 °F 74% 30.22 in 10.0 mi NE 4.6 mph - 0.00 in   Overcast
11:53 AM 52.0 °F 46.0 °F 80% 30.23 in 10.0 mi North 6.9 mph - 0.00 in Rain Light Rain
12:53 PM 52.0 °F 41.0 °F 66% 30.22 in 10.0 mi NNE 10.4 mph - 0.00 in   Overcast
1:41 PM 50.0 °F 43.0 °F 77% 30.23 in 9.0 mi NNE 9.2 mph - 0.00 in Rain Light Rain
1:53 PM 50.0 °F 43.0 °F 77% 30.21 in 10.0 mi NE 9.2 mph - 0.00 in   Overcast
2:53 PM 50.0 °F 43.0 °F 77% 30.19 in 8.0 mi NNE 11.5 mph - 0.03 in Rain Light Rain
3:53 PM 50.0 °F 43.0 °F 77% 30.20 in 10.0 mi NNE 13.8 mph - 0.02 in Rain Light Rain
4:53 PM 50.0 °F 41.0 °F 71% 30.20 in 10.0 mi NE 13.8 mph - 0.00 in   Overcast
5:32 PM 50.0 °F 43.0 °F 77% 30.23 in 10.0 mi NNE 12.7 mph - 0.00 in   Overcast
5:53 PM 50.0 °F 43.0 °F 77% 30.21 in 10.0 mi NE 13.8 mph - 0.00 in Rain Light Rain
6:32 PM 50.0 °F 42.1 °F 74% 30.24 in 10.0 mi NNE 15.0 mph - 0.00 in   Mostly Cloudy
6:53 PM 50.0 °F 43.0 °F 77% 30.22 in 10.0 mi NNE 13.8 mph - 0.00 in   Mostly Cloudy
7:53 PM 48.9 °F 42.1 °F 77% 30.25 in 10.0 mi North 15.0 mph - N/A   Mostly Cloudy
8:53 PM 48.9 °F 41.0 °F 74% 30.26 in 10.0 mi NNE 17.3 mph - N/A   Clear
9:53 PM 48.9 °F 39.0 °F 69% 30.26 in 10.0 mi North 18.4 mph - N/A   Mostly Cloudy
10:53 PM 48.9 °F 37.0 °F 64% 30.25 in 10.0 mi NNE 16.1 mph - N/A   Overcast
11:53 PM 48.0 °F 39.9 °F 74% 30.25 in 10.0 mi North 15.0 mph - N/A   Overcast